Time,TemperatureF,DewpointF,PressureIn,WindDirection,WindDirectionDegrees,WindSpeedMPH,WindSpeedGustMPH,Humidity,HourlyPrecipIn,Conditions,Clouds,dailyrainin,SoftwareType,DateUTC
2014-09-02 01:12:00,67.0,-99.9,-100.00,WNW,301,9.0,10.0,-999,0.00,,,-99.99,,2014-09-02 06:12:00,
2014-09-02 01:22:00,67.0,-99.9,-100.00,WNW,301,9.0,10.0,-999,0.00,,,-99.99,,2014-09-02 06:22:00,
2014-09-02 01:32:00,67.0,-99.9,-100.00,WNW,301,9.0,10.0,-999,0.00,,,-99.99,,2014-09-02 06:32:00,
2014-09-02 05:14:00,65.0,-99.9,-100.00,WNW,301,12.0,13.0,-999,0.00,,,-99.99,,2014-09-02 10:14:00,
2014-09-02 05:24:00,65.0,-99.9,-100.00,WNW,301,12.0,13.0,-999,0.00,,,-99.99,,2014-09-02 10:24:00,
2014-09-02 05:54:00,65.0,-99.9,-100.00,West,274,10.0,11.0,-999,0.00,,,-99.99,,2014-09-02 10:54:00,
2014-09-02 06:12:00,65.0,-99.9,-100.00,West,274,10.0,11.0,-999,0.00,,,-99.99,,2014-09-02 11:12:00,
2014-09-02 06:23:00,65.0,-99.9,-100.00,West,274,10.0,11.0,-999,0.00,,,-99.99,,2014-09-02 11:23:00,
2014-09-02 06:52:00,64.0,-99.9,-100.00,NW,304,6.0,7.0,-999,0.00,,,-99.99,,2014-09-02 11:52:00,
2014-09-02 07:02:00,64.0,-99.9,-100.00,NW,304,6.0,7.0,-999,0.00,,,-99.99,,2014-09-02 12:02:00,
2014-09-02 11:33:00,65.0,-99.9,-100.00,West,262,12.0,13.0,-999,0.00,,,-99.99,,2014-09-02 16:33:00,
2014-09-02 15:23:00,76.0,-99.9,-100.00,SW,215,13.0,15.0,-999,0.00,,,-99.99,,2014-09-02 20:23:00,
2014-09-02 15:33:00,76.0,-99.9,-100.00,SW,215,13.0,15.0,-999,0.00,,,-99.99,,2014-09-02 20:33:00,
2014-09-02 15:53:00,76.0,-99.9,-100.00,SW,215,13.0,15.0,-999,0.00,,,-99.99,,2014-09-02 20:53:00,
2014-09-02 18:23:00,74.0,-99.9,-100.00,SW,233,12.0,13.0,-999,0.00,,,-99.99,,2014-09-02 23:23:00,
2014-09-02 18:43:00,74.0,-99.9,-100.00,SW,229,10.0,12.0,-999,0.00,,,-99.99,,2014-09-02 23:43:00,
2014-09-02 18:52:00,74.0,-99.9,-100.00,SW,229,10.0,12.0,-999,0.00,,,-99.99,,2014-09-02 23:52:00,
2014-09-02 19:12:00,73.0,-99.9,-100.00,SW,215,9.0,10.0,-999,0.00,,,-99.99,,2014-09-03 00:12:00,
2014-09-02 19:23:00,73.0,-99.9,-100.00,SW,215,9.0,10.0,-999,0.00,,,-99.99,,2014-09-03 00:23:00,
2014-09-02 19:32:00,73.0,-99.9,-100.00,SW,215,9.0,10.0,-999,0.00,,,-99.99,,2014-09-03 00:32:00,
2014-09-02 21:42:00,66.0,-99.9,-100.00,North,0,0.0,0.0,-999,0.00,,,-99.99,,2014-09-03 02:42:00,
2014-09-02 21:53:00,66.0,-99.9,-100.00,North,0,0.0,0.0,-999,0.00,,,-99.99,,2014-09-03 02:53:00,
2014-09-02 22:02:00,66.0,-99.9,-100.00,North,0,0.0,0.0,-999,0.00,,,-99.99,,2014-09-03 03:02:00,